Wind_Speed
42 41 41 38 34 33 34 33 30 28 24 22 21 20 18 18 16 19 18 19 19 22 22 19 17 16 15 17 20 21 20 20 20 17 16 15 13 12 12 13 13 13 15
46 47 42 37 39 36 36 36 33 30 29 25 24 23 21 20 21 24 25 27 26 23 23 20 18 16 17 19 19 19 18 17 19 17 15 14 14 14 15 15 13 13 14
52 47 44 42 41 39 37 36 35 33 32 30 28 27 26 25 26 27 27 27 26 22 20 21 20 17 18 16 18 19 19 19 18 16 14 16 15 15 16 16 14 13 14
36 40 46 47 43 41 37 37 38 36 35 35 31 31 30 29 29 30 29 29 27 26 22 23 24 21 19 17 18 20 19 19 15 15 16 15 15 15 16 15 14 13 16
33 35 35 42 44 41 39 35 36 38 39 38 37 36 34 34 34 32 32 31 30 29 28 26 27 26 21 21 18 19 19 18 17 15 15 14 15 16 16 13 12 13 17
34 33 33 40 45 46 42 40 38 37 37 37 38 39 39 39 38 37 35 35 32 30 30 30 29 27 26 22 20 18 20 19 20 19 16 14 15 16 16 14 13 12 15
36 33 31 35 43 47 47 44 42 42 42 42 42 42 42 42 41 41 39 37 36 34 34 33 31 28 26 25 23 22 19 19 21 21 18 18 18 17 16 17 18 19 18
36 37 36 35 38 44 45 47 47 47 48 47 48 47 46 44 42 41 41 37 36 33 33 34 33 29 29 28 27 25 23 19 20 22 21 19 19 19 19 20 20 25 27
35 36 37 36 38 41 40 41 45 47 48 49 50 51 50 48 45 43 41 41 37 36 35 36 35 33 32 29 31 27 24 21 22 21 22 23 22 20 21 22 24 27 29
36 36 36 38 40 39 40 39 40 43 47 48 46 48 48 47 47 44 40 40 42 41 39 40 36 35 34 32 33 33 27 24 25 23 24 24 25 24 23 24 25 28 31
41 38 36 36 38 41 38 38 39 40 41 44 41 40 39 40 39 40 43 41 39 41 40 36 33 36 36 37 34 32 33 31 31 28 28 28 27 27 27 28 29 30 32
45 43 40 38 37 37 38 36 36 34 35 37 34 33 31 25 22 36 35 41 40 40 39 38 36 35 33 33 32 32 35 36 36 35 33 31 31 30 30 30 30 34 36
49 47 45 41 39 39 40 38 35 34 34 33 32 34 34 32 28 27 27 28 32 38 42 39 35 38 34 32 33 33 34 37 39 36 36 35 33 34 32 31 32 34 37
51 49 48 45 42 42 43 42 40 37 34 33 35 34 32 30 31 28 25 22 22 27 26 29 35 38 36 35 34 33 31 33 36 37 37 36 36 36 37 37 36 36 37
53 51 49 47 44 41 43 43 42 39 35 36 37 39 33 34 32 30 32 32 31 31 30 30 31 33 35 35 35 34 33 33 33 34 36 37 35 34 35 37 39 40 39
56 55 52 50 48 43 44 41 41 43 39 40 39 40 37 36 37 37 32 31 34 32 33 32 30 30 29 33 34 36 36 36 36 36 34 38 37 37 37 37 37 39 40
60 59 56 54 50 47 48 46 48 47 44 43 43 42 43 41 39 37 40 39 37 39 38 36 38 36 30 31 29 29 32 34 34 34 37 39 41 38 38 39 38 39 41
64 64 62 58 55 53 50 51 51 53 50 48 47 45 48 46 45 43 43 39 35 40 40 40 40 41 37 34 32 32 35 36 36 34 37 39 37 40 39 41 43 43 43
71 69 68 65 61 59 55 54 55 57 55 53 50 49 51 51 50 48 46 48 48 43 45 42 42 41 41 41 38 39 40 38 39 41 43 40 43 39 39 40 41 39 38
79 75 73 72 68 65 61 58 60 61 60 58 56 54 54 55 54 52 51 50 51 51 49 46 47 48 46 44 45 46 46 45 46 45 42 41 42 40 42 41 41 39 39
87 82 79 76 73 69 65 64 64 63 62 63 61 57 59 58 55 56 55 53 54 52 54 51 48 48 49 47 49 50 50 49 50 50 46 46 46 48 44 43 47 44 45
94 90 85 82 78 75 69 67 66 69 66 66 60 59 57 60 62 62 62 60 55 55 55 54 51 49 50 50 50 48 50 49 53 52 52 52 49 51 51 49 49 51 49
101 98 92 88 84 81 77 73 69 71 68 68 66 65 66 64 67 64 65 64 64 59 57 57 56 54 54 53 51 51 54 53 52 54 53 52 50 51 52 47 46 48 50
104 101 96 90 87 85 82 77 73 73 71 74 72 71 71 68 67 68 67 66 66 68 64 63 61 59 59 56 55 55 55 55 54 57 57 57 53 52 51 48 49 50 50
105 103 98 93 88 86 85 82 79 76 77 78 78 76 77 77 74 73 75 72 69 69 65 62 64 66 66 64 60 57 56 55 57 58 59 62 58 57 57 56 56 55 55
95 102 103 99 94 90 86 85 83 80 80 80 82 82 83 84 83 81 78 80 75 72 70 71 70 69 71 70 67 64 65 64 63 64 65 64 64 65 62 59 59 56 56
Wind_Direction
250 255 259 258 256 254 254 256 255 249 252 253 252 256 265 276 278 272 281 292 295 300 304 302 306 305 306 309 312 313 317 325 333 334 337 341 347 341 329 326 325 333 339
246 255 253 249 249 257 253 254 254 253 250 252 252 256 260 265 266 279 289 290 292 296 300 298 304 306 302 311 317 320 319 329 336 334 338 335 338 330 329 328 328 333 331
247 247 247 246 253 249 249 250 254 255 254 250 251 255 259 266 272 279 286 289 290 291 292 295 301 307 311 316 318 327 329 335 338 337 335 335 325 321 326 325 329 329 334
243 246 247 244 241 243 245 246 250 254 255 253 252 252 257 263 269 273 281 288 286 290 289 294 298 303 310 317 316 321 330 337 338 340 335 330 323 324 325 330 331 329 341
242 248 245 237 233 234 239 243 249 251 255 257 256 259 261 266 266 268 271 278 279 284 288 294 295 296 300 309 313 315 322 330 339 337 337 332 325 326 327 334 331 332 334
243 247 241 232 230 233 237 240 245 249 250 253 256 260 263 265 264 265 269 270 273 278 284 291 294 292 298 300 305 306 311 321 329 339 336 332 328 327 324 328 322 327 335
244 241 243 236 232 233 237 241 243 245 248 251 254 258 260 262 263 263 262 263 268 271 280 287 290 287 292 298 303 301 302 310 319 327 329 329 332 329 323 318 311 304 313
243 238 236 235 234 233 236 240 245 245 246 250 253 255 257 260 262 265 265 262 263 267 273 283 285 280 284 293 298 297 296 301 304 313 319 316 320 324 323 319 312 310 316
241 235 233 234 235 235 238 238 241 244 246 248 251 253 255 256 259 262 262 262 262 266 271 279 278 276 282 286 293 291 291 296 302 303 306 308 306 310 314 318 319 318 321
242 235 232 233 236 236 237 239 241 243 246 249 250 252 252 256 259 260 262 260 261 266 270 275 272 269 277 281 288 286 280 287 294 297 300 300 300 299 304 308 311 312 314
244 239 236 231 234 236 236 233 238 242 245 247 248 248 250 255 258 257 257 257 259 262 264 266 269 267 270 271 276 285 278 287 291 289 291 292 292 294 297 301 302 304 306
241 241 239 234 229 235 232 228 228 234 239 242 242 239 227 230 254 256 248 251 254 256 259 261 265 267 270 271 272 272 278 281 285 285 289 291 288 288 292 295 296 300 301
244 241 238 234 233 232 228 227 225 233 235 235 237 225 227 231 233 233 239 256 258 260 261 259 265 267 268 268 269 268 268 272 278 281 284 286 287 285 286 288 293 294 297
244 244 239 235 234 236 233 230 233 230 226 226 224 223 226 237 232 226 228 233 247 246 245 256 264 267 270 273 270 270 270 273 278 282 284 287 289 286 283 286 287 288 292
242 243 240 238 234 234 234 232 227 222 218 222 229 231 231 238 235 235 242 240 242 252 260 261 265 268 270 275 276 276 278 276 277 278 281 283 288 292 289 287 288 290 294
241 240 241 237 235 230 226 227 222 216 217 223 226 237 238 241 242 240 243 245 247 251 258 262 266 272 273 277 277 276 277 281 280 278 279 283 290 292 292 288 288 290 291
240 242 240 237 235 230 230 229 224 216 219 221 228 231 239 241 246 251 251 249 251 257 261 260 265 271 275 279 281 281 279 282 284 283 287 286 289 301 300 298 291 291 290
239 241 242 238 232 231 229 230 223 219 218 224 225 229 233 238 241 242 247 246 257 262 265 268 272 274 275 277 278 278 281 288 284 290 292 292 291 298 299 297 296 295 293
237 238 241 241 236 233 230 227 225 223 221 224 228 228 231 232 238 242 243 248 251 253 263 266 272 277 280 279 280 285 287 288 290 293 294 294 298 298 294 294 295 296 298
235 236 237 240 239 236 232 227 224 230 224 224 226 233 233 234 233 238 244 246 250 254 255 258 263 269 271 270 275 279 284 285 287 291 295 294 299 296 295 295 293 294 296
237 235 237 236 239 238 236 229 227 228 229 226 229 235 235 236 237 236 240 241 245 246 253 258 261 265 269 273 275 278 282 284 286 290 293 292 294 294 297 297 293 296 298
240 238 236 237 236 238 236 233 230 226 229 230 230 232 236 238 240 240 241 239 241 245 249 253 258 259 263 268 274 278 281 284 286 292 291 293 297 300 298 299 296 297 299
240 241 239 237 237 236 236 234 233 230 229 230 233 235 233 238 237 242 245 246 247 247 249 255 258 261 264 267 271 276 279 281 285 289 292 293 295 296 297 299 300 302 301
244 243 243 241 239 239 239 237 234 231 232 232 234 236 237 238 241 241 245 246 250 250 253 256 259 262 264 264 269 271 277 279 283 285 286 290 292 291 290 296 294 300 302
246 246 246 245 243 242 241 241 238 234 233 234 235 238 239 240 241 242 242 246 249 250 251 255 257 260 262 266 271 274 276 277 279 282 287 289 288 291 294 295 296 297 298
245 245 245 246 246 245 245 244 243 241 237 237 238 239 240 241 243 242 243 244 246 248 252 254 255 258 262 264 267 272 274 275 276 279 280 283 287 290 291 291 293 295 296
Height
10877 10880 10885 10887 10889 10891 10893 10895 10897 10899 10900 10902 10904 10905 10906 10907 10908 10908 10908 10908 10908 10908 10909 10908 10908 10908 10908 10907 10906 10905 10904 10902 10901 10899 10898 10896 10894 10892 10890 10888 10887 10886 10884
10872 10875 10879 10882 10884 10887 10889 10890 10893 10895 10897 10899 10900 10902 10903 10905 10906 10906 10906 10906 10906 10906 10905 10906 10906 10906 10906 10905 10904 10903 10902 10900 10899 10897 10896 10895 10893 10891 10889 10887 10886 10885 10883
10865 10869 10872 10875 10878 10881 10883 10886 10888 10891 10894 10895 10896 10898 10899 10901 10903 10903 10903 10904 10904 10904 10904 10904 10904 10904 10904 10902 10901 10901 10900 10899 10897 10896 10894 10894 10892 10889 10887 10886 10885 10883 10882
10859 10862 10864 10867 10871 10875 10879 10882 10884 10886 10888 10891 10892 10894 10895 10897 10898 10899 10900 10901 10902 10901 10902 10902 10902 10902 10902 10900 10899 10899 10898 10897 10896 10895 10893 10892 10890 10888 10886 10885 10884 10882 10881
10852 10855 10857 10859 10864 10869 10873 10877 10879 10881 10884 10886 10888 10890 10891 10893 10894 10895 10897 10897 10898 10899 10899 10899 10899 10900 10899 10899 10899 10897 10895 10895 10895 10894 10893 10890 10889 10887 10885 10884 10883 10882 10880
10847 10849 10851 10853 10858 10863 10867 10871 10874 10876 10878 10880 10881 10884 10886 10888 10889 10891 10893 10893 10895 10895 10896 10896 10897 10897 10896 10897 10897 10895 10894 10893 10892 10892 10891 10889 10887 10886 10884 10883 10881 10880 10878
10840 10844 10845 10848 10852 10856 10860 10864 10867 10869 10871 10873 10875 10877 10879 10880 10883 10885 10888 10889 10890 10890 10891 10892 10893 10894 10894 10894 10894 10894 10893 10892 10891 10890 10890 10888 10886 10884 10882 10881 10879 10877 10875
10832 10837 10839 10842 10844 10848 10853 10857 10859 10862 10864 10867 10869 10870 10872 10873 10876 10879 10881 10884 10885 10886 10886 10887 10889 10890 10890 10891 10891 10891 10891 10891 10889 10888 10888 10886 10885 10883 10882 10880 10878 10875 10873
10825 10829 10833 10836 10838 10842 10846 10848 10851 10853 10855 10858 10861 10863 10865 10867 10869 10872 10875 10877 10879 10880 10882 10882 10884 10885 10886 10887 10887 10887 10888 10888 10887 10886 10886 10884 10882 10881 10879 10878 10876 10873 10871
10818 10821 10826 10829 10831 10834 10837 10840 10843 10845 10847 10850 10853 10855 10858 10860 10862 10866 10867 10870 10872 10873 10875 10877 10879 10880 10881 10882 10883 10882 10883 10883 10884 10883 10883 10882 10880 10879 10878 10876 10874 10871 10868
10811 10815 10819 10822 10824 10826 10829 10832 10835 10838 10840 10842 10845 10848 10851 10853 10855 10858 10860 10862 10864 10867 10868 10870 10872 10873 10875 10876 10877 10878 10877 10878 10879 10879 10878 10878 10877 10876 10875 10873 10871 10868 10865
10803 10807 10811 10814 10818 10820 10822 10825 10828 10831 10833 10835 10838 10841 10843 10844 10846 10850 10852 10854 10858 10861 10862 10863 10866 10867 10868 10869 10870 10872 10872 10872 10872 10873 10873 10872 10872 10871 10870 10870 10867 10864 10861
10795 10799 10802 10806 10810 10813 10816 10818 10823 10824 10826 10829 10832 10834 10837 10838 10839 10841 10845 10848 10851 10854 10855 10857 10858 10859 10861 10862 10864 10865 10865 10866 10866 10866 10865 10865 10865 10865 10865 10864 10863 10860 10857
10786 10791 10795 10799 10803 10807 10810 10813 10816 10819 10820 10823 10825 10829 10831 10833 10834 10836 10839 10842 10845 10847 10848 10850 10852 10853 10854 10856 10857 10858 10859 10859 10860 10859 10858 10858 10858 10858 10858 10857 10856 10855 10852
10777 10782 10786 10791 10795 10799 10802 10805 10808 10812 10813 10816 10819 10822 10826 10827 10830 10831 10833 10835 10837 10840 10843 10845 10847 10848 10848 10849 10850 10852 10852 10852 10853 10852 10852 10851 10850 10851 10851 10850 10849 10848 10846
10769 10772 10777 10782 10787 10791 10794 10797 10802 10805 10807 10811 10813 10815 10819 10820 10822 10825 10827 10829 10831 10834 10836 10839 10840 10842 10843 10844 10844 10844 10845 10845 10846 10845 10846 10844 10843 10844 10843 10842 10842 10840 10838
10761 10764 10767 10771 10777 10783 10786 10789 10793 10797 10801 10804 10807 10809 10810 10813 10815 10816 10818 10822 10826 10828 10830 10833 10834 10835 10837 10838 10838 10838 10839 10838 10838 10838 10837 10838 10837 10837 10836 10834 10834 10833 10831
10750 10754 10758 10761 10765 10770 10776 10779 10783 10788 10792 10797 10800 10802 10804 10805 10808 10812 10814 10814 10817 10820 10822 10824 10826 10828 10831 10832 10832 10832 10832 10832 10832 10832 10831 10830 10831 10829 10829 10827 10825 10824 10823
10734 10740 10746 10751 10755 10758 10763 10769 10774 10778 10784 10787 10791 10795 10797 10799 10801 10804 10807 10807 10810 10813 10814 10816 10818 10820 10822 10823 10824 10824 10824 10824 10824 10824 10824 10823 10821 10822 10821 10819 10818 10816 10814
10719 10724 10731 10738 10744 10747 10751 10758 10764 10768 10773 10775 10779 10783 10788 10791 10794 10797 10800 10801 10804 10805 10807 10808 10810 10813 10814 10815 10816 10816 10816 10816 10816 10816 10816 10816 10815 10813 10812 10811 10810 10808 10806
10705 10710 10714 10722 10730 10736 10741 10745 10750 10756 10760 10766 10769 10771 10776 10782 10786 10789 10791 10793 10795 10797 10797 10800 10802 10804 10804 10805 10806 10807 10808 10807 10806 10807 10808 10807 10806 10806 10805 10803 10801 10800 10798
10685 10694 10698 10705 10712 10721 10727 10734 10739 10743 10749 10754 10758 10763 10766 10770 10772 10776 10779 10781 10784 10788 10788 10789 10792 10794 10796 10797 10798 10799 10797 10798 10796 10798 10797 10797 10796 10796 10795 10794 10792 10790 10788
10663 10672 10681 10688 10695 10703 10712 10719 10727 10732 10737 10742 10746 10748 10751 10752 10758 10763 10767 10770 10774 10778 10780 10778 10783 10783 10785 10788 10789 10791 10789 10790 10789 10786 10787 10787 10788 10787 10786 10785 10783 10781 10779
10644 10651 10662 10671 10679 10688 10694 10704 10711 10718 10725 10728 10731 10734 10738 10743 10746 10751 10755 10758 10760 10764 10768 10770 10771 10772 10774 10775 10779 10780 10780 10780 10779 10776 10776 10777 10779 10778 10778 10775 10774 10772 10770
10623 10634 10644 10654 10664 10670 10677 10688 10696 10704 10710 10711 10716 10720 10723 10726 10732 10737 10741 10743 10746 10749 10753 10757 10759 10760 10761 10763 10765 10768 10770 10770 10770 10767 10766 10765 10768 10768 10766 10766 10763 10762 10759
10600 10614 10626 10636 10647 10654 10662 10670 10678 10688 10693 10697 10701 10704 10707 10710 10715 10722 10725 10728 10733 10736 10737 10741 10744 10746 10747 10749 10752 10754 10755 10757 10759 10757 10756 10755 10751 10751 10756 10754 10751 10750 10748